Location: Donald C. Martin Observatory
(38.3885°N, 82.3916°W)
Time: 02:15:35
(UTC-04:00)

Cosmos 1484 Rocket - Visible Passes

Search period start: 21 August 2014 00:00
Search period end: 31 August 2014 00:00
Orbit: 514 x 575 km, 97.4° (Epoch: 20 August)

Date Brightness Start Highest point End Pass type
(mag) Time Alt. Az. Time Alt. Az. Time Alt. Az.
21 Aug 4.0 21:20:08 10° S 21:23:45 41° W 21:27:20 10° NNW visible
22 Aug 3.6 21:14:13 10° S 21:17:54 49° W 21:21:34 10° NNW visible
23 Aug 3.3 21:08:20 10° S 21:12:04 59° W 21:15:47 10° NNW visible
24 Aug 2.9 21:02:27 10° S 21:06:13 72° W 21:09:59 10° NNW visible
25 Aug 2.7 20:56:37 10° SSE 21:00:23 86° WSW 21:04:09 10° NNW visible
26 Aug 2.6 20:50:47 10° SSE 20:54:33 79° ENE 20:58:18 10° N visible
27 Aug 2.7 20:44:59 10° SSE 20:48:42 66° ENE 20:52:26 10° N visible
28 Aug 2.8 20:39:12 10° SSE 20:42:52 55° ENE 20:46:33 10° N visible
29 Aug 3.0 20:33:27 10° SSE 20:37:02 45° ENE 20:40:38 10° N visible
29 Aug 6.0 22:11:42 10° W 22:11:56 10° W 22:12:09 10° W visible
30 Aug 3.3 20:27:43 10° SE 20:31:12 38° ENE 20:34:42 10° N visible
30 Aug 5.7 22:04:31 10° WSW 22:06:01 12° W 22:07:32 10° WNW visible
